This is the latest recevied weather packets stored in our database for station/object W4EDL-13. If no packets are shown the sender has not sent any weather packets the latest 1 day(s).
| Time | Temp. | Humidity | Pressure | Rain* | Wind** | Luminosity | Snow |
|---|---|---|---|---|---|---|---|
| 1777981127 | 20° C | 89% | 1006.6 hPa | - | 0 m/s | - | - |
| 1777980526 | 18.89° C | 94% | 1006.3 hPa | - | 0 m/s | - | - |
| 1777980526 | 18.89° C | 94% | 1006.3 hPa | - | 0 m/s | - | - |
| 1777979926 | 18.33° C | 95% | 1006.3 hPa | - | 0 m/s | - | - |
| 1777979325 | 17.78° C | 96% | 1005.9 hPa | - | 0 m/s | - | - |
| 1777978724 | 17.78° C | 96% | 1005.6 hPa | - | 0 m/s | - | - |
| 1777978124 | 17.78° C | 97% | 1005.6 hPa | - | 0 m/s | - | - |
| 1777977523 | 17.22° C | 97% | 1005.9 hPa | - | 0 m/s | - | - |
| 1777976923 | 17.78° C | 96% | 1005.9 hPa | - | 0 m/s | - | - |
| 1777976322 | 17.78° C | 95% | 1005.9 hPa | - | 0 m/s | - | - |
| 1777975121 | 18.33° C | 94% | 1005.6 hPa | - | 0.45 m/s, 51° | - | - |
| 1777974521 | 18.33° C | 94% | 1005.6 hPa | - | 0 m/s | - | - |
| 1777973920 | 18.33° C | 93% | 1005.6 hPa | - | 0 m/s | - | - |
| 1777973320 | 18.33° C | 92% | 1005.6 hPa | - | 0 m/s | - | - |
| 1777972719 | 18.33° C | 93% | 1005.6 hPa | - | 0 m/s | - | - |
| 1777972119 | 18.33° C | 93% | 1005.6 hPa | - | 0 m/s | - | - |
| 1777971518 | 18.33° C | 92% | 1005.6 hPa | - | 0 m/s | - | - |
| 1777970918 | 18.33° C | 92% | 1005.6 hPa | - | 0 m/s | - | - |
| 1777970317 | 18.33° C | 90% | 1005.6 hPa | - | 0 m/s | - | - |
| 1777969716 | 18.89° C | 89% | 1005.3 hPa | - | 0 m/s | - | - |
| 1777969116 | 18.89° C | 88% | 1005.3 hPa | - | 0 m/s | - | - |
| 1777968515 | 18.89° C | 87% | 1005.6 hPa | - | 0 m/s | - | - |
| 1777967915 | 19.44° C | 85% | 1005.6 hPa | - | 0 m/s | - | - |
| 1777967314 | 19.44° C | 84% | 1005.6 hPa | - | 0 m/s | - | - |
| 1777966714 | 19.44° C | 83% | 1005.6 hPa | - | 0.45 m/s, 66° | - | - |
* Rain since midnight (hover to see other rain measurements)
** Current wind speed in m/s (hover to see current wind gust speed)